Retour au catalogue

STARLINK-31960

ActifCommunicationsVLEO
NORAD 59931·PAYLOAD·🇺🇸 United States

Lancé Jun 1, 2024 depuis Cape Canaveral Space Force Station

Loading…

Prochains Passages (prochaines 24 heures)

TLE

FraisSource: CelesTrak SupGP

Époque: Sep 14, 2026, 21:02 UTC

1 59931C 24106K   26257.87687500 -.00008361  00000+0 -30278-3 0  2572
2 59931  43.0038 343.8566 0001908 275.3971 287.4100 15.27589214    11

Suivez STARLINK-31960 en temps réel avec AllMySat

Download on the App Store